AXM6248 WMKP-WMKL

Flight info

Callsign AXM6248
Flight time 0h 22m
Altitude 10000
Route OMBOK DCT KAPKO
Aircraft A320/M-SDE3FGHIRWY/LB1

Departure

Time 2026-05-04 09:40
Airport Penang International Airport (WMKP)

Arrival

Time 2026-05-04 10:02
Airport Langkawi International Airport (WMKL)
Time Latitude Longitude Altitude Speed Heading
2026-05-04 09:17 5.29411 100.26824 26 ft 0 kts 310°
2026-05-04 09:27 5.29406 100.26829 26 ft 2 kts 310°
2026-05-04 09:28 5.29397 100.26841 25 ft 2 kts 310°
2026-05-04 09:28 5.29387 100.26852 25 ft 2 kts 310°
2026-05-04 09:28 5.29377 100.26865 25 ft 2 kts 310°
2026-05-04 09:28 5.29367 100.26876 24 ft 1 kts 310°
2026-05-04 09:29 5.29361 100.26883 24 ft 2 kts 300°
2026-05-04 09:29 5.29357 100.26897 24 ft 2 kts 265°
2026-05-04 09:29 5.29362 100.26912 23 ft 2 kts 234°
2026-05-04 09:29 5.29367 100.26918 23 ft 1 kts 217°
2026-05-04 09:30 5.29371 100.26921 23 ft 0 kts 221°
2026-05-04 09:34 5.29219 100.26976 22 ft 13 kts 44°
2026-05-04 09:34 5.29295 100.27045 21 ft 15 kts 42°
2026-05-04 09:34 5.29377 100.27121 22 ft 16 kts 41°
2026-05-04 09:34 5.29464 100.27198 21 ft 17 kts 42°
2026-05-04 09:35 5.29558 100.27283 21 ft 18 kts 42°
2026-05-04 09:35 5.29655 100.27372 21 ft 19 kts 42°
2026-05-04 09:35 5.29756 100.27463 21 ft 19 kts 42°
2026-05-04 09:35 5.29861 100.27558 21 ft 20 kts 43°
2026-05-04 09:37 5.30636 100.28291 22 ft 22 kts 41°
2026-05-04 09:37 5.30756 100.28401 22 ft 23 kts 42°
2026-05-04 09:38 5.30867 100.28503 22 ft 12 kts 44°
2026-05-04 09:38 5.30908 100.28580 22 ft 13 kts 94°
2026-05-04 09:38 5.30882 100.28636 22 ft 9 kts 136°
2026-05-04 09:38 5.30823 100.28672 22 ft 10 kts 153°
2026-05-04 09:39 5.30766 100.28638 22 ft 10 kts 226°
2026-05-04 09:39 5.30706 100.28583 22 ft 15 kts 222°
2026-05-04 09:39 5.30472 100.28370 21 ft 79 kts 224°
2026-05-04 09:39 5.29902 100.27856 22 ft 138 kts 222°
2026-05-04 09:40 5.29066 100.27106 222 ft 167 kts 221°
2026-05-04 09:40 5.28210 100.26340 788 ft 168 kts 222°
2026-05-04 09:40 5.27338 100.25560 1382 ft 170 kts 222°
2026-05-04 09:40 5.26441 100.24774 1905 ft 175 kts 222°
2026-05-04 09:41 5.25552 100.23888 2176 ft 187 kts 240°
2026-05-04 09:42 5.34541 100.21426 4980 ft 270 kts
2026-05-04 09:43 5.36412 100.21567 5696 ft 272 kts
2026-05-04 09:43 5.38318 100.21299 6386 ft 278 kts 341°
2026-05-04 09:43 5.40083 100.20490 7129 ft 281 kts 334°
2026-05-04 09:43 5.41817 100.19580 7837 ft 285 kts 334°
2026-05-04 09:44 5.43602 100.18654 8550 ft 289 kts 335°
2026-05-04 09:44 5.45410 100.17744 9234 ft 293 kts 335°
2026-05-04 09:44 5.47262 100.16833 9729 ft 296 kts 336°
2026-05-04 09:46 5.60305 100.10580 9983 ft 296 kts 336°
2026-05-04 09:46 5.62183 100.09684 9987 ft 296 kts 336°
2026-05-04 09:46 5.64045 100.08795 9984 ft 296 kts 337°
2026-05-04 09:47 5.65919 100.07900 9983 ft 296 kts 336°
2026-05-04 09:47 5.67805 100.06998 9983 ft 296 kts 337°
2026-05-04 09:49 5.80882 100.00743 9994 ft 296 kts 336°
2026-05-04 09:49 5.82758 99.99844 9993 ft 296 kts 336°
2026-05-04 09:49 5.84610 99.98955 9993 ft 296 kts 337°
2026-05-04 09:51 5.95708 99.93348 9986 ft 300 kts 319°
2026-05-04 09:51 5.97025 99.91724 9995 ft 303 kts 304°
2026-05-04 09:51 5.98138 99.89912 9993 ft 302 kts 302°
2026-05-04 09:51 5.99217 99.88096 9980 ft 299 kts 302°
2026-05-04 09:52 6.00262 99.86344 9834 ft 290 kts 303°
2026-05-04 09:52 6.01293 99.84637 9674 ft 281 kts 303°
2026-05-04 09:52 6.02305 99.82974 9517 ft 273 kts 303°
2026-05-04 09:52 6.03288 99.81367 9364 ft 264 kts 304°
2026-05-04 09:53 6.04234 99.79827 9195 ft 257 kts 304°
2026-05-04 09:53 6.05178 99.78294 8931 ft 255 kts 304°
2026-05-04 09:53 6.06107 99.76786 8640 ft 254 kts 304°
2026-05-04 09:53 6.07033 99.75281 8443 ft 248 kts 304°
2026-05-04 09:54 6.07929 99.73820 8300 ft 240 kts 304°
2026-05-04 09:54 6.08763 99.72461 8323 ft 220 kts 304°
2026-05-04 09:54 6.09554 99.71172 8130 ft 210 kts 304°
2026-05-04 09:54 6.10299 99.69961 7912 ft 198 kts 304°
2026-05-04 09:55 6.11004 99.68813 7690 ft 187 kts 306°
2026-05-04 09:55 6.11760 99.67819 7442 ft 175 kts 317°
2026-05-04 09:55 6.12668 99.67026 7090 ft 170 kts 327°
2026-05-04 09:55 6.13603 99.66352 6850 ft 158 kts 329°
2026-05-04 09:56 6.14483 99.65735 6489 ft 154 kts 329°
2026-05-04 09:56 6.15368 99.65115 6098 ft 153 kts 329°
2026-05-04 09:56 6.16237 99.64500 5715 ft 152 kts 328°
2026-05-04 09:56 6.17090 99.63895 5343 ft 151 kts 329°
2026-05-04 09:57 6.17962 99.63303 4967 ft 148 kts 341°
2026-05-04 09:57 6.18942 99.63297 4511 ft 145 kts 23°
2026-05-04 09:57 6.19826 99.63793 4073 ft 147 kts 35°
2026-05-04 09:57 6.20657 99.64386 3669 ft 147 kts 37°
2026-05-04 09:58 6.21494 99.64992 3279 ft 147 kts 36°
2026-05-04 09:58 6.22323 99.65578 2902 ft 146 kts 36°
2026-05-04 09:58 6.23154 99.66155 2529 ft 145 kts 35°
2026-05-04 10:00 6.28913 99.70105 1080 ft 143 kts 34°
2026-05-04 10:00 6.29758 99.70667 718 ft 148 kts 33°
2026-05-04 10:02 6.33472 99.73200 27 ft 26 kts 35°
2026-05-04 10:04 6.33926 99.73219 30 ft 7 kts 35°
2026-05-04 10:04 6.33971 99.73250 30 ft 7 kts 33°
2026-05-04 10:04 6.34017 99.73280 30 ft 7 kts 34°
2026-05-04 10:04 6.34063 99.73312 30 ft 7 kts 34°
2026-05-04 10:05 6.34086 99.73327 30 ft 2 kts 21°
2026-05-04 10:05 6.34099 99.73316 30 ft 3 kts 307°
2026-05-04 10:05 6.34111 99.73299 30 ft 3 kts 302°
2026-05-04 10:05 6.34123 99.73280 30 ft 2 kts 304°
2026-05-04 10:06 6.34125 99.73277 30 ft 0 kts 303°